Location: *
(13.0000°N, 151.6000°E)
Time: 15:56:55
(UTC+00:00)

Cosmos 1428 Rocket - Pass Details

Date: 01 April 2020
Orbit: 948 x 988 km, 82.9° (Epoch: 03 June)

Event Time Altitude Azimuth Distance (km) Brightness Sun altitude
Rises 18:54:10 0° 186° (S) 3,608 7.3 -14.2°
Reaches altitude 10° 18:56:39 10° 187° (S) 2,663 6.6 -13.6°
Maximum altitude 19:02:43 79° 273° (W) 968 4.4 -12.1°
Drops below altitude 10° 19:08:49 10° 0° (N) 2,671 6.9 -10.6°
Sets 19:11:19 0° 2° (N) 3,621 7.6 -10.0°
